Location: Carella
(45.8167°N, 9.2667°E)
Time: 18:23:49
(UTC+00:00)

Cosmos 2263 - Pass Details

Date: 30 March 2020
Orbit: 833 x 864 km, 70.9° (Epoch: 04 June)

Event Time Altitude Azimuth Distance (km) Brightness Sun altitude
Rises 19:39:27 0° 336° (NNW) 3,397 8.2 -19.1°
Reaches altitude 10° 19:41:58 10° 341° (NNW) 2,456 7.3 -19.5°
Maximum altitude 19:47:30 56° 59° (ENE) 990 4.3 -20.3°
Enters shadow 19:49:08 41° 112° (ESE) 1,194 4.5 -20.6°
